world map with ERF marked

ERF - Airport

This information may not be accurate or current and is not valid for navigation or flight planning. No warranty of fitness for any purpose is made or implied.

flag of Thüringenflag of Germany

Donate via PayPal

Additional information is available on the NEW Great Circle Mapper

Location
City:  Erfurt, Thüringen, Germany
Name:Binderslebn
ICAO / IATA:EDDE / ERF

Details
Type:Airport (Flugplatz, Airfield)
Use:Public/Civil
Latitude:50°58'47"N (50.979811)
Longitude:10°57'29"E (10.958106)
Datum:WGS 1984
Elevation:1036 ft (316 m)
Runways:1
Longest:8530 × 164 ft (2600 × 50 m)

Time
Timezone:UTC+1 (DST+2)
Local Time:

Weather
METAR:EDDE  011020Z 22003KT CAVOK 15/10 Q1022 NOSIG
TAF:EDDE  010500Z 0106/0206 22006KT CAVOK= TAF EDDG 010500Z 0106/0206 13004KT CAVOK BECMG 0110/0113 20006KT BECMG 0116/0119 14003KT

Related Locations
Nearby:
Farthest:CHT: 11828 mi / 19036 km
Waitangi [Tuuta], Chatham Islands, NZ

Find:

   beyond  
but within

Other Information
Maps:
Links:
Sources:

  


 


Great Circle Mapper   Great Circle Mapper
Great Circle Mapper FAQ   Great Circle Mapper FAQ
  Karl's Home Page
KLS²   KLS² Home
   GC on Facebook
Airlines of the World   Airlines of the World
Donate via PayPal


Copyright © 2004-2014, Karl L. Swartz. All rights reserved.
All trademarks mentioned herein belong to their respective owners.

Please see credits for attribution and copyright information.

Karl Swartz <karl@kls2.com>
  Powered by FreeBSD
Valid HTML 4.01!
Labeled with ICRA
hCard Microformat
Geo Microformat